Location: Arroyo de San Miguel
(40.9167°N, 4.6667°W)
Time: 17:18:25
(UTC+00:00)

Cosmos 1867 - Pass Details

Date: 19 May 2025
Orbit: 775 x 798 km, 65.0° (Epoch: 11 May)

Event Time Altitude Azimuth Distance (km) Brightness Sun altitude
Rises 21:37:30 0° 330° (NNW) 3,270 8.3 -19.0°
Reaches altitude 10° 21:39:58 10° 334° (NNW) 2,342 7.2 -19.3°
Maximum altitude 21:45:16 59° 54° (NE) 901 3.8 -19.9°
Enters shadow 21:47:13 37° 116° (ESE) 1,200 4.0 -20.1°
